TimeMDT,TemperatureF,Dew PointF,Humidity,Sea Level PressureIn,VisibilityMPH,Wind Direction,Wind SpeedMPH,Gust SpeedMPH,PrecipitationIn,Events,Conditions,WindDirDegrees,DateUTC
12:53 AM,64.0,45.0,50,30.01,10.0,NW,5.8,-,N/A,,Clear,320,2013-07-19 06:53:00
1:53 AM,64.9,46.0,50,30.01,10.0,NNW,4.6,-,N/A,,Clear,340,2013-07-19 07:53:00
2:53 AM,64.0,46.0,52,30.01,10.0,Calm,Calm,-,N/A,,Clear,0,2013-07-19 08:53:00
3:53 AM,57.0,46.0,67,30.01,10.0,NW,5.8,-,N/A,,Clear,320,2013-07-19 09:53:00
4:53 AM,55.9,46.0,69,30.02,10.0,WNW,4.6,-,N/A,,Clear,290,2013-07-19 10:53:00
5:53 AM,55.9,46.9,72,30.02,10.0,WNW,5.8,-,N/A,,Clear,300,2013-07-19 11:53:00
6:53 AM,60.1,48.0,64,30.02,10.0,WNW,4.6,-,N/A,,Clear,290,2013-07-19 12:53:00
7:53 AM,66.0,52.0,60,30.02,10.0,South,4.6,-,N/A,,Clear,170,2013-07-19 13:53:00
8:53 AM,71.1,51.1,49,30.03,10.0,SSW,6.9,-,N/A,,Clear,200,2013-07-19 14:53:00
9:53 AM,78.1,51.1,39,30.01,10.0,WSW,4.6,-,N/A,,Clear,240,2013-07-19 15:53:00
10:53 AM,82.0,48.9,31,29.99,10.0,Calm,Calm,-,N/A,,Clear,0,2013-07-19 16:53:00
11:53 AM,84.0,48.9,29,29.97,10.0,Calm,Calm,-,N/A,,Clear,0,2013-07-19 17:53:00
12:53 PM,88.0,48.9,26,29.96,10.0,Variable,5.8,-,N/A,,Clear,0,2013-07-19 18:53:00
1:53 PM,89.1,48.0,24,29.94,10.0,South,8.1,-,N/A,,Clear,190,2013-07-19 19:53:00
2:53 PM,90.0,46.9,23,29.91,10.0,Variable,5.8,-,N/A,,Clear,0,2013-07-19 20:53:00
3:53 PM,90.0,46.0,22,29.90,10.0,South,5.8,-,N/A,,Clear,180,2013-07-19 21:53:00
4:53 PM,91.0,45.0,20,29.88,10.0,South,9.2,-,N/A,,Clear,190,2013-07-19 22:53:00
5:53 PM,90.0,46.0,22,29.87,10.0,Calm,Calm,-,N/A,,Clear,0,2013-07-19 23:53:00
6:53 PM,90.0,46.0,22,29.85,10.0,ESE,4.6,-,N/A,,Clear,110,2013-07-20 00:53:00
7:53 PM,87.1,48.0,26,29.84,10.0,ENE,4.6,-,N/A,,Clear,60,2013-07-20 01:53:00
8:53 PM,82.0,48.9,31,29.84,10.0,NE,11.5,-,N/A,,Clear,50,2013-07-20 02:53:00
9:53 PM,80.1,50.0,35,29.86,10.0,ENE,8.1,-,N/A,,Clear,70,2013-07-20 03:53:00
10:53 PM,75.9,51.1,42,29.87,10.0,East,3.5,-,N/A,,Clear,80,2013-07-20 04:53:00
11:53 PM,72.0,50.0,46,29.88,10.0,North,8.1,-,N/A,,Clear,10,2013-07-20 05:53:00